Location: Kikino
(54.4440°N, 112.0940°W)
Time: 19:51:42
(UTC+00:00)

A-11 Canister half - Pass Details

Date: 23 May 2024
Orbit: 1525 x 1683 km, 47.3° (Epoch: 12 June)

Event Time Altitude Azimuth Distance (km) Brightness Sun altitude
Rises 06:40:38 0° 251° (WSW) 4,708 11.5 -14.3°
Reaches altitude 10° 06:43:43 10° 248° (WSW) 3,742 10.9 -14.3°
Maximum altitude 06:52:53 57° 173° (S) 1,836 9.1 -14.5°
Drops below altitude 10° 07:02:23 10° 99° (E) 3,866 11.0 -14.7°
Sets 07:05:37 0° 96° (E) 4,873 11.5 -14.7°
